Location: Vancouver
(49.2500°N, 123.1330°W)
Time: 03:05:42
(UTC-07:00)

Cosmos 676 Rocket - Visible Passes

Search period start: 30 September 2016 00:00
Search period end: 10 October 2016 00:00
Orbit: 754 x 785 km, 74.0° (Epoch: 28 September)

Date Brightness Start Highest point End Pass type
(mag) Time Alt. Az. Time Alt. Az. Time Alt. Az.
30 Sep 6.8 01:32:52 13° N 01:32:52 13° N 01:33:36 10° N visible
01 Oct 6.9 00:56:55 12° N 00:56:55 12° N 00:57:23 10° N visible
02 Oct 7.0 00:20:57 10° NNE 00:20:57 10° NNE 00:21:01 10° NNE visible
03 Oct 7.0 01:25:17 11° N 01:25:17 11° N 01:25:28 10° N visible
03 Oct 6.7 06:35:08 10° N 06:37:52 14° NE 06:40:37 10° ENE visible
04 Oct 7.0 00:49:18 11° N 00:49:18 11° N 00:49:27 10° N visible
06 Oct 6.6 06:26:54 10° N 06:30:44 20° NE 06:34:34 10° E visible
07 Oct 6.8 05:50:57 10° N 05:53:44 14° NE 05:56:30 10° ENE visible
08 Oct 7.2 05:16:24 10° NNE 05:16:36 10° NE 05:16:48 10° NE visible
09 Oct 6.1 06:18:55 10° N 06:23:30 28° NE 06:28:03 10° ESE visible
